AirNav   Everest Fuels
 
 1038 users online  

43K Marion Municipal Airport
Marion, Kansas, USA

GOING TO MARION?


FAA INFORMATION EFFECTIVE 25 APRIL 2019

Location

FAA Identifier: 43K
Lat/Long: 38-20-15.4000N / 096-59-17.7000W
38-20.256667N / 096-59.295000W
38.3376111 / -96.9882500
(estimated)
Elevation: 1390 ft. / 424 m (estimated)
Variation: 07E (1985)
From city: 2 miles SE of MARION, KS
Time zone: UTC -5 (UTC -6 during Standard Time)
Zip code: 66861

Airport Operations

Airport use: Open to the public
Activation date: 12/1945
Control tower: no
ARTCC: KANSAS CITY CENTER
FSS: WICHITA FLIGHT SERVICE STATION
NOTAMs facility: ICT (NOTAM-D service available)
Attendance: UNATNDD
PHONE AVBL 24 HRS.
Wind indicator: yes
Segmented circle: no
Beacon: white-green (lighted land airport)
Operates sunset to sunrise.

Airport Communications

CTAF: 122.9

Nearby radio navigation aids

VOR radial/distance  VOR name  Freq  Var
FRIr183/(38.4)FORT RILEY VOR109.4006E

 
NDB name  Hdg/Dist  Freq  Var  ID
NEWTON033/21.228106EEWK . .-- -.-
HERINGTON195/22.940706EHRU .... .-. ..-

Airport Services

Fuel available: 100LL MOGAS
Parking: hangars and tiedowns
Airframe service: NONE
Powerplant service: NONE
Bottled oxygen: NONE
Bulk oxygen: NONE

Runway Information

Runway 17/35

Dimensions: 2573 x 40 ft. / 784 x 12 m
Surface: asphalt, in good condition
Runway edge lights: low intensity
Runway edge markings: RWY 35 ALIGNMENT NUMBERS FADED.
RUNWAY 17  RUNWAY 35
Latitude: 38-20.455545N38-20.031528N
Longitude: 096-59.227317W096-59.227317W
Elevation: 1382.0 ft.1378.0 ft.
Traffic pattern: leftleft
Runway heading: 173 magnetic, 180 true353 magnetic, 000 true
Markings: numbers only, in good conditionnumbers only, in good condition

Runway 3/21

Dimensions: 2745 x 95 ft. / 837 x 29 m
Surface: turf, in good condition
RY 03/21 IS SLIGHTLY ROUGH.
Runway edge markings: 03/21 THLDS & EDGES MKD WITH YELLOW PAINTED TIRES.
RUNWAY 3  RUNWAY 21
Traffic pattern: leftleft
Obstructions: 4 ft. fence
THE PROXIMITY OF THE FENCE TO THE RWY ESTABLISHES THE CONTROLLING OBSTRUCTION. THE 35' TO 40' TREES DIRECTLY BEHIND WOULD BE MORE OF A CONCERN FOR APPROACHING AIRCRAFT.
22 ft. pline, 735 ft. from runway, 170 ft. left of centerline, 33:1 slope to clear

Runway 13/31

Dimensions: 2722 x 50 ft. / 830 x 15 m
Surface: turf, in good condition
Runway edge markings: 13/31 THLD & EDGES MKD WITH YELLOW PAINTED TIRES.
RUNWAY 13  RUNWAY 31
Traffic pattern: leftleft
Obstructions: 14 ft. treesnone

Runway 18/36

Dimensions: 2310 x 67 ft. / 704 x 20 m
Surface: turf, in good condition
Runway edge markings: RY 18/36 THLD DELINEATED WITH YELLOW PAINTED TIRES.
RUNWAY 18  RUNWAY 36
Latitude: 38-20.459450N38-20.079648N
Longitude: 096-59.352258W096-59.385003W
Elevation: 1380.0 ft.1378.0 ft.
Traffic pattern: leftleft
Runway heading: 177 magnetic, 184 true357 magnetic, 004 true
Obstructions: 4 ft. fence, 9 ft. from runway, 30 ft. left and right of centerline, 2:1 slope to clearnone

Airport Ownership and Management from official FAA records

Ownership: Publicly-owned
Owner: CITY OF MARION
208 EAST SANTA FE
MARION, KS 66861
Phone 620-382-3703
Manager: DOUG KJELLIN
208 EAST SANTA FE
MARION, KS 66861
Phone 620-382-3703
MR.MAYFIELD IS CITY MGR. OF MARION KS.

Airport Operational Statistics

Aircraft based on the field: 17
Single engine airplanes: 16
Ultralights: 1
    
Aircraft operations: avg 25/day *
66% local general aviation
33% transient general aviation
<1% military
* for 12-month period ending 29 September 2016

Additional Remarks

A58-35 RWY 35 ROAD ABANDONED & IS GATED FM TRAFFIC. +4 FT FENCE; 70 FT FRM END OF RWY; BOTH SIDES OF RWY.
A58-17 +4' FENCE 5' FROM RWY END 30' L & R OF CNTRLEN; LOWERED AT RWY.

Instrument Procedures

There are no published instrument procedures at 43K.

Some nearby airports with instrument procedures:

KEWK - Newton City/County Airport (22 nm SW)
KHRU - Herington Regional Airport (23 nm N)
47K - Moundridge Municipal Airport (25 nm W)
KMPR - Mc Pherson Airport (33 nm W)
1K1 - Lloyd Stearman Field Airport (34 nm S)
 
Loc | Ops | Rwys | IFR | FBO | Links
Com | Nav | Svcs | Stats | Notes

Kansas City Aviation Department
 
Area around 43K (Marion Municipal Airport)
 
Road maps at: MapQuest Bing Google
 
Aerial photo
WARNING: Photo may not be current or correct
Aerial photo of 43K (Marion Municipal Airport)
Photo by Paul Hodson
Photo taken 21-Jan-2006
taken from a C182 from the northwest

Do you have a better or more recent aerial photo of Marion Municipal Airport that you would like to share? If so, please send us your photo.

 
Sectional chart

 
Airport distance calculator
Flying to Marion Municipal Airport? Find the distance to fly.

From to 43K

Sunrise and sunset
Times for 21-May-2019
 Local
(UTC-5)
 Zulu
(UTC)
Morning civil twilight05:4310:43
Sunrise06:1311:13
Sunset20:3601:36
Evening civil twilight21:0602:06

Current date and time
Zulu (UTC)  22-May-2019 01:12:40
Local (UTC-5)  21-May-2019 20:12:40
 
METAR
KEWK 
22nm SW 
220056Z AUTO 21018G25KT 10SM SCT075 18/08 A2936 RMK AO2 PRESRR SLP932 T01780083
K1K1 
34nm S 
220055Z AUTO 19016G21KT 10SM SCT110 19/08 A2936 RMK AO2 T01940082
KEQA 
35nm S 
220055Z AUTO 18012KT 10SM -RA SCT100 BKN120 19/11 A2937 RMK AO2
KAAO 
37nm S 
220054Z AUTO 20012G21KT 10SM FEW110 18/08 A2936 RMK AO2 SLP936 T01830083
KEMP 
37nm E 
220053Z AUTO 17015KT 10SM BKN110 19/10 A2937 RMK AO2 PK WND 19030/0006 SLP943 T01890100
KBEC 
40nm S 
220055Z AUTO 19014G17KT 10SM SCT110 19/08 A2936 RMK AO2 T01890083
K3AU 
40nm S 
220055Z AUTO 19015G20KT 10SM SCT100 SCT110 19/09 A2937 RMK AO2
KSLN 
41nm NW 
220053Z 24004KT 10SM VCTS BKN065 BKN075 OVC090 14/09 A2931 RMK AO2 LTG DSNT S RAE2356 SLP921 P0000 T01390094
KFRI 
43nm N 
212243Z AUTO 19015G20KT 10SM FEW019 FEW025 SCT034 BKN043 BKN060 18/15 A2930 RMK AO2 SLP917
KHUT 
44nm W 
220052Z 21022G34KT 10SM FEW080 BKN110 18/08 A2933 RMK AO2 PK WND 22042/0038 LTG DSNT N SLP915 T01780083
TAF
KSLN 
41nm NW 
211722Z 2118/2218 12014G22KT 5SM -RA BR OVC008 TEMPO 2119/2121 4SM TSRA BR OVC010CB FM212100 17019KT P6SM VCSH BKN070 FM220200 20016G24KT P6SM BKN110 FM220600 23014KT P6SM FEW250
KFRI 
43nm N 
212320Z 2123/2303 16012G18KT 9999 BKN015 QNH2930INS TEMPO 2123/2200 18025G50KT 3200 TSRAGR OVC008CB BECMG 2202/2203 24012KT 9999 SKC QNH2944INS BECMG 2215/2216 21012G18KT 9999 SKC QNH2968INS BECMG 2223/2224 VRB06KT 9999 SKC QNH2978INS TX24/2221Z TN08/2212Z
KHUT 
44nm W 
212037Z 2121/2218 19024G32KT P6SM VCSH FEW040 FEW060 FM220100 20018G26KT P6SM SCT150 FM220400 23015KT P6SM FEW250
KIAB 
45nm S 
211918Z 2119/2224 15015G25KT 9999 BKN015 BKN020 BKN030 510052 QNH2930INS TEMPO 2119/2123 VRB25G37KT SCT015 BKN020 BECMG 2122/2123 19012KT 8000 -SHRA VCTS SCT020CB BKN030 510052 QNH2937INS TEMPO 2123/2204 VRB20G25KT 4800 -TSRA OVC010CB BECMG 2214/2215 VRB06KT 9999 NSW SCT035 510023 QNH2970INS BECMG 2220/2221 17012KT 9999 SKC 510024 QNH2972INS BECMG 2223/2224 VRB06KT 9999 BKN030 QNH2972INS TX24/2121Z TN08/2211Z
KICT 
46nm SW 
212250Z 2123/2218 20020G30KT P6SM VCTS SCT040 BKN080CB FM220000 20020G28KT P6SM SCT150 FM220800 22010KT P6SM FEW250
KMHK 
50nm N 
211738Z 2118/2218 10017G30KT P6SM -SHRA VCTS OVC012CB FM212000 16020G28KT 6SM -SHRA BR VCTS SCT007CB BKN035 FM220200 18016G25KT P6SM BKN150 FM220700 21011KT P6SM FEW150
NOTAMs
Click for the latest NOTAMs
NOTAMs are issued by the DoD/FAA and will open in a separate window not controlled by AirNav.

 

 
 

Would you like to see your business listed on this page?

 If your business provides an interesting product or service to pilots, flight crews, aircraft, or users of the Marion Municipal Airport, you should consider listing it here.  To start the listing process, click on the button below
 
Add a business
 

Other Pages about Marion Municipal Airport

Update a link
 
Copyright © AirNav, LLC. All rights reserved. Privacy Policy  Contact